Regional Weather Roundup
Issued by NWS

Home | Current Version | Previous Version | Graphics & Text | Print | Product List | Glossary On
Versions: 1 2 3 4 5 6 7 8 9 10 11 12 13 14 15 16 17 18 19 20 21 22 23 24 25 26 27 28 29 30 31 32 33 34 35 36 37 38 39 40 41 42 43 44 45 46 47 48 49 50
000
ASUS43 KLSX 221007
RWRMO

WEATHER SUMMARY FOR MISSOURI
NATIONAL WEATHER SERVICE SPRINGFIELD MO
500 AM CDT FRI SEP 22 2017

NOTE: "FAIR" INDICATES FEW OR NO CLOUDS BELOW 12,000 FEET WITH NO
       SIGNIFICANT WEATHER AND/OR OBSTRUCTIONS TO VISIBILITY.
       CURRENT SKY AND/OR WEATHER CONDITIONS ARE NOT AVAILABLE FOR
       CHILLICOTHE AND FARMINGTON.

MOZ001>031-035>038-043-044-053-054-221100-
...NORTHERN AND WESTERN MISSOURI...

CITY           SKY/WX    TMP DP  RH WIND       PRES   REMARKS
KANSAS CTY INT CLEAR     74  70  87 S10       29.93R
KANSAS C DTWN  CLEAR     77  71  82 S9        29.92S
LEE`S SUMMIT   CLEAR     74  70  87 S10       29.95S
ST JOSEPH      CLEAR     75  71  87 S7        29.91S
CHILLICOTHE      N/A     73  70  90 SE7       29.97R
KIRKSVILLE     CLEAR     70  67  90 SE7       30.01R

$$
MOZ066>068-077>081-088>096-101>105-221100-
...SOUTHWEST MISSOURI...

CITY           SKY/WX    TMP DP  RH WIND       PRES   REMARKS
SPRINGFIELD    CLEAR     71  69  93 SE8       30.01R
JOPLIN         CLEAR     72  71  97 SE6       29.98R
BRANSON          N/A     68  66  94 CALM      30.04R

$$
MOZ032>034-039>042-045>050-055>058-069>072-221100-
...CENTRAL MISSOURI...

CITY           SKY/WX    TMP DP  RH WIND       PRES   REMARKS
COLUMBIA       CLEAR     71  69  93 SE7       30.02S
JEFFERSON CITY CLEAR     73  67  81 E5        30.01S
ROLLA          CLEAR     73  69  87 S8        30.05S
SEDALIA        CLEAR     72  70  93 SE6       30.01R
WHITEMAN AFB   CLEAR     72  66  83 SE8       29.98R
WARRENSBURG    CLEAR     70  66  88 SE6       29.97R
OSAGE BEACH    CLEAR     70  68  93 SE5       30.03R

$$
MOZ051-052-059>065-221100-
...EAST CENTRAL MISSOURI...

CITY           SKY/WX    TMP DP  RH WIND       PRES   REMARKS
ST LOUIS INTL  CLEAR     74  69  85 CALM      30.04R
SPIRIT OF STL  CLEAR     69  69 100 CALM      30.03R FOG
ST CHARLES     CLEAR     69  67  93 E3        30.03R

$$
MOZ072>076-082>087-097>100-106>115-221100-
...SOUTH CENTRAL AND SOUTHEAST MISSOURI...

CITY           SKY/WX    TMP DP  RH WIND       PRES   REMARKS
CAPE GIRARDEAU CLEAR     68  67  96 CALM      30.03S
FARMINGTON     CLEAR     67  66  97 CALM      30.07R
POPLAR BLUFF   CLEAR     67  66  97 N3        30.02S
WEST PLAINS    CLEAR     67  66  97 CALM      30.07R FOG

$$



USA.gov is the U.S. government's official web portal to all federal, state and local government web resources and services.